sat.trackr.live / text

‹ back to catalog

STARLINK-2742

NORAD 48688 · 2021-044BC

PAYLOAD ACTIVE UNKNOWN

§ Identity

Operator
Country
US
Launch date
2021-05-26
Launch site
AFETR
Launch vehicle
Mass (kg)
RCS (m²)

Purposes: comms

External: N2YO · Heavens-Above · Gunter

§ Orbital elements

Epoch: 2026-09-03T13:51:28.528992Z

Period
94.01 min
Inclination
53.1605°
Eccentricity
0.0001269
Mean motion
15.31693940 rev/d
Perigee alt
469.9 km
Apogee alt
471.6 km
Semi-major
6,848.9 km
B*
1.6915e-5
RAAN
317.3615°
Arg perigee
84.2982°
Mean anomaly
275.8164°
Rev number
29,175

§ Raw data

STARLINK-27421 48688U 21044BC  26246.57741353  .00000160  00000+0  16915-4 0  99922 48688  53.1605 317.3615 0001269  84.2982 275.8164 15.31693940291751

JSON: /api/v1/satellites/48688 · /tle

For live sub-satellite position, see the globe view (requires WebGL).

§ Visibility from observer

Set your observer location to see the next 7 days of passes ≥ 10°. The values pass through the URL so the page stays shareable.

No JS? Fill the form by hand. The geolocation button needs JavaScript.